START_TIME,STEP,MOV.,AL01,t_acc.,AL02,t_acc.,E37,t_acc.,H21,t_acc.
1980-11-14 12:00:22.870 ,7,0,11.,24.0,0.,24.0,0.,24.0,0.,24.0
1980-11-14 12:00:46.870 ,7,1,10.,24.0,0.,24.0,0.,24.0,0.,24.0
1980-11-14 12:01:10.870 ,7,0,9.,24.0,0.,24.0,1.,24.0,0.,24.0
1980-11-14 12:01:34.870 ,6,1,6.,24.0,0.,24.0,0.,24.0,0.,24.0
1980-11-14 12:01:58.870 ,6,0,0.,24.0,0.,24.0,1.,24.0,0.,24.0
1980-11-14 12:02:22.870 ,5,1,0.,24.0,0.,24.0,1.,24.0,0.,24.0
1980-11-14 12:02:46.870 ,5,0,0.,24.0,0.,24.0,2.,24.0,0.,24.0
1980-11-14 12:03:10.870 ,4,1,0.,24.0,0.,24.0,0.,24.0,0.,24.0
1980-11-14 12:03:34.870 ,4,0,0.,24.0,0.,24.0,1.,24.0,0.,24.0
1980-11-14 12:03:58.870 ,3,1,0.,24.0,0.,24.0,2.,24.0,0.,24.0
1980-11-14 12:04:22.870 ,3,0,0.,24.0,0.,24.0,0.,24.0,0.,24.0
1980-11-14 12:04:46.870 ,2,1,0.,24.0,0.,24.0,3.,24.0,0.,24.0
1980-11-14 12:05:10.870 ,2,0,0.,24.0,0.,24.0,1.,24.0,0.,24.0
1980-11-14 12:05:34.870 ,1,1,0.,24.0,0.,24.0,0.,24.0,0.,24.0
1980-11-14 12:05:58.870 ,1,0,0.,24.0,0.,24.0,0.,24.0,0.,24.0
1980-11-14 12:06:22.870 ,0,1,0.,24.0,0.,24.0,0.,24.0,0.,24.0
1980-11-14 12:06:46.870 ,0,0,0.,24.0,0.,24.0,0.,24.0,0.,24.0
1980-11-14 12:07:10.870 ,0,1,0.,24.0,0.,24.0,0.,24.0,0.,24.0
1980-11-14 12:07:34.870 ,0,0,0.,24.0,0.,24.0,2.,24.0,0.,24.0
1980-11-14 12:07:58.870 ,1,1,0.,24.0,0.,24.0,0.,24.0,0.,24.0
1980-11-14 12:08:22.870 ,1,0,0.,24.0,0.,24.0,0.,24.0,0.,24.0
1980-11-14 12:08:46.870 ,2,1,0.,24.0,0.,24.0,0.,24.0,0.,24.0
1980-11-14 12:09:10.870 ,2,0,0.,24.0,0.,24.0,0.,24.0,0.,24.0
1980-11-14 12:09:34.870 ,3,1,0.,24.0,0.,24.0,0.,24.0,0.,24.0
1980-11-14 12:09:58.870 ,3,0,0.,24.0,0.,24.0,1.,24.0,0.,24.0
1980-11-14 12:10:22.870 ,4,1,0.,24.0,0.,24.0,0.,24.0,0.,24.0
1980-11-14 12:10:46.870 ,4,0,0.,24.0,0.,24.0,0.,24.0,0.,24.0
1980-11-14 12:11:10.870 ,5,1,0.,24.0,0.,24.0,1.,24.0,0.,24.0
1980-11-14 12:11:34.870 ,5,0,0.,24.0,0.,24.0,0.,24.0,0.,24.0
1980-11-14 12:11:58.870 ,6,1,0.,24.0,0.,24.0,0.,24.0,0.,24.0
1980-11-14 12:12:22.870 ,6,0,0.,24.0,0.,24.0,1.,24.0,0.,24.0
1980-11-14 12:12:46.870 ,7,1,2.,24.0,0.,24.0,0.,24.0,0.,24.0
1980-11-14 12:13:10.870 ,7,0,13.,24.0,0.,24.0,1.,24.0,0.,24.0
1980-11-14 12:13:34.870 ,7,1,7.,24.0,0.,24.0,0.,24.0,0.,24.0
1980-11-14 12:13:58.870 ,7,0,11.,24.0,0.,24.0,1.,24.0,0.,24.0
1980-11-14 12:14:22.870 ,6,1,8.,24.0,0.,24.0,1.,24.0,0.,24.0
1980-11-14 12:14:46.870 ,6,0,0.,24.0,0.,24.0,0.,24.0,0.,24.0
1980-11-14 12:15:10.870 ,5,1,0.,24.0,0.,24.0,0.,24.0,0.,24.0
1980-11-14 12:15:34.870 ,5,0,0.,24.0,0.,24.0,0.,24.0,0.,24.0
1980-11-14 12:15:58.870 ,4,1,0.,24.0,0.,24.0,0.,24.0,0.,24.0
1980-11-14 12:16:22.870 ,4,0,0.,24.0,0.,24.0,0.,24.0,0.,24.0
1980-11-14 12:16:46.870 ,3,1,0.,24.0,0.,24.0,0.,24.0,0.,24.0
1980-11-14 12:17:10.870 ,3,0,0.,24.0,0.,24.0,0.,24.0,0.,24.0
1980-11-14 12:17:34.870 ,2,1,0.,24.0,0.,24.0,1.,24.0,0.,24.0
1980-11-14 12:17:58.870 ,2,0,0.,24.0,0.,24.0,0.,24.0,0.,24.0
1980-11-14 12:18:22.870 ,1,1,0.,24.0,0.,24.0,1.,24.0,0.,24.0
1980-11-14 12:18:46.870 ,1,0,0.,24.0,0.,24.0,0.,24.0,0.,24.0
1980-11-14 12:19:10.870 ,0,1,0.,24.0,0.,24.0,1.,24.0,0.,24.0
1980-11-14 12:19:34.870 ,0,0,0.,24.0,0.,24.0,0.,24.0,0.,24.0
1980-11-14 12:19:58.870 ,0,1,0.,24.0,0.,24.0,1.,24.0,0.,24.0
1980-11-14 12:20:22.870 ,0,0,0.,24.0,0.,24.0,1.,24.0,0.,24.0
1980-11-14 12:20:46.870 ,1,1,0.,24.0,0.,24.0,0.,24.0,0.,24.0
1980-11-14 12:21:10.870 ,1,0,0.,24.0,0.,24.0,2.,24.0,0.,24.0
1980-11-14 12:21:34.870 ,2,1,0.,24.0,0.,24.0,0.,24.0,0.,24.0
1980-11-14 12:21:58.870 ,2,0,0.,24.0,0.,24.0,0.,24.0,0.,24.0
1980-11-14 12:22:22.870 ,3,1,1.,24.0,0.,24.0,0.,24.0,0.,24.0
1980-11-14 12:22:46.870 ,3,0,0.,24.0,0.,24.0,1.,24.0,0.,24.0
1980-11-14 12:23:10.870 ,4,1,0.,24.0,0.,24.0,1.,24.0,0.,24.0
1980-11-14 12:23:34.870 ,4,0,0.,24.0,0.,24.0,0.,24.0,0.,24.0
1980-11-14 13:35:58.870 ,0,0,0.,24.0,0.,24.0,0.,24.0,0.,24.0
1980-11-14 13:36:22.870 ,0,0,0.,24.0,0.,24.0,0.,24.0,0.,24.0
1980-11-14 13:36:46.870 ,0,1,0.,24.0,0.,24.0,0.,24.0,0.,24.0
1980-11-14 13:37:10.870 ,0,0,0.,24.0,0.,24.0,0.,24.0,0.,24.0
1980-11-14 13:37:34.870 ,1,1,0.,24.0,0.,24.0,1.,24.0,0.,24.0
1980-11-14 13:37:58.870 ,1,0,0.,24.0,0.,24.0,1.,24.0,0.,24.0
1980-11-14 13:38:22.870 ,2,1,0.,24.0,0.,24.0,0.,24.0,0.,24.0
1980-11-14 13:38:46.870 ,2,0,0.,24.0,0.,24.0,0.,24.0,0.,24.0
1980-11-14 13:39:10.870 ,3,1,0.,24.0,0.,24.0,0.,24.0,0.,24.0
1980-11-14 13:39:34.870 ,3,0,0.,24.0,0.,24.0,1.,24.0,0.,24.0
1980-11-14 13:39:58.870 ,4,1,0.,24.0,0.,24.0,0.,24.0,0.,24.0
1980-11-14 13:40:22.870 ,4,0,0.,24.0,0.,24.0,0.,24.0,0.,24.0
1980-11-14 13:40:46.870 ,5,1,0.,24.0,0.,24.0,0.,24.0,0.,24.0
1980-11-14 13:41:10.870 ,5,0,0.,24.0,0.,24.0,0.,24.0,0.,24.0
1980-11-14 13:41:34.870 ,6,1,0.,24.0,0.,24.0,0.,24.0,0.,24.0
1980-11-14 13:41:58.870 ,6,0,0.,24.0,0.,24.0,1.,24.0,0.,24.0
1980-11-14 13:42:22.870 ,7,1,1.,24.0,0.,24.0,0.,24.0,0.,24.0
1980-11-14 13:42:46.870 ,7,0,6.,24.0,0.,24.0,1.,24.0,0.,24.0
1980-11-14 13:43:10.870 ,7,1,8.,24.0,0.,24.0,1.,24.0,0.,24.0
1980-11-14 13:43:34.870 ,7,0,15.,24.0,0.,24.0,0.,24.0,0.,24.0
1980-11-14 13:43:58.870 ,6,1,4.,24.0,0.,24.0,0.,24.0,0.,24.0
1980-11-14 13:44:22.870 ,6,0,0.,24.0,0.,24.0,0.,24.0,0.,24.0
1980-11-14 13:44:46.870 ,5,1,0.,24.0,0.,24.0,1.,24.0,0.,24.0
1980-11-14 13:45:10.870 ,5,0,0.,24.0,0.,24.0,2.,24.0,0.,24.0
1980-11-14 13:45:34.870 ,4,1,0.,24.0,0.,24.0,0.,24.0,0.,24.0
1980-11-14 13:45:58.870 ,4,0,0.,24.0,0.,24.0,0.,24.0,0.,24.0
1980-11-14 13:46:22.870 ,3,1,0.,24.0,0.,24.0,0.,24.0,0.,24.0
1980-11-14 13:46:46.870 ,3,0,0.,24.0,0.,24.0,1.,24.0,0.,24.0
1980-11-14 13:47:10.870 ,2,1,0.,24.0,0.,24.0,0.,24.0,0.,24.0
1980-11-14 13:47:34.870 ,2,0,0.,24.0,0.,24.0,0.,24.0,0.,24.0
1980-11-14 13:47:58.870 ,1,1,0.,24.0,0.,24.0,0.,24.0,0.,24.0
1980-11-14 13:48:22.870 ,1,0,0.,24.0,0.,24.0,2.,24.0,0.,24.0
1980-11-14 13:48:46.870 ,0,1,0.,24.0,0.,24.0,1.,24.0,0.,24.0
1980-11-14 13:49:10.870 ,0,0,0.,24.0,0.,24.0,0.,24.0,0.,24.0
1980-11-14 13:49:34.870 ,0,1,0.,24.0,0.,24.0,2.,24.0,0.,24.0
1980-11-14 13:49:58.870 ,0,0,0.,24.0,0.,24.0,0.,24.0,0.,24.0
1980-11-14 13:50:22.870 ,1,1,0.,24.0,1.,24.0,1.,24.0,0.,24.0
1980-11-14 13:50:46.870 ,1,0,1.,24.0,0.,24.0,1.,24.0,0.,24.0
1980-11-14 13:51:10.870 ,2,1,0.,24.0,0.,24.0,0.,24.0,0.,24.0
1980-11-14 13:51:34.870 ,2,0,0.,24.0,0.,24.0,0.,24.0,0.,24.0
1980-11-14 13:51:58.870 ,3,1,0.,24.0,0.,24.0,1.,24.0,0.,24.0
1980-11-14 13:52:22.870 ,3,0,0.,24.0,0.,24.0,1.,24.0,0.,24.0
1980-11-14 13:52:46.870 ,4,1,0.,24.0,0.,24.0,0.,24.0,0.,24.0
1980-11-14 13:53:10.870 ,4,0,0.,24.0,0.,24.0,0.,24.0,0.,24.0
1980-11-14 13:53:34.870 ,5,1,0.,24.0,0.,24.0,0.,24.0,0.,24.0
1980-11-14 13:53:58.870 ,5,0,0.,24.0,0.,24.0,1.,24.0,0.,24.0
1980-11-14 13:54:22.870 ,6,1,0.,24.0,0.,24.0,1.,24.0,0.,24.0
1980-11-14 13:54:46.870 ,6,0,0.,24.0,0.,24.0,0.,24.0,0.,24.0
1980-11-14 13:55:10.870 ,7,1,3.,24.0,0.,24.0,1.,24.0,0.,24.0
1980-11-14 13:55:34.870 ,7,0,6.,24.0,0.,24.0,1.,24.0,0.,24.0
1980-11-14 13:55:58.870 ,7,1,8.,24.0,0.,24.0,1.,24.0,0.,24.0
1980-11-14 13:56:22.870 ,7,0,10.,24.0,0.,24.0,2.,24.0,0.,24.0
1980-11-14 13:56:46.870 ,6,1,11.,24.0,0.,24.0,0.,24.0,0.,24.0
1980-11-14 13:57:10.870 ,6,0,0.,24.0,0.,24.0,0.,24.0,0.,24.0
1980-11-14 13:57:34.870 ,5,1,0.,24.0,0.,24.0,1.,24.0,0.,24.0
1980-11-14 13:57:58.870 ,5,0,0.,24.0,0.,24.0,0.,24.0,0.,24.0
1980-11-14 13:58:22.870 ,4,1,0.,24.0,0.,24.0,2.,24.0,0.,24.0
1980-11-14 13:58:46.870 ,4,0,0.,24.0,0.,24.0,0.,24.0,0.,24.0
1980-11-14 13:59:10.870 ,3,1,0.,24.0,0.,24.0,1.,24.0,0.,24.0
1980-11-14 13:59:34.870 ,3,0,0.,24.0,0.,24.0,1.,24.0,0.,24.0
1980-11-14 13:59:58.870 ,2,1,0.,24.0,0.,24.0,1.,24.0,0.,24.0
1980-11-14 14:00:22.870 ,2,0,0.,24.0,0.,24.0,1.,24.0,0.,24.0
1980-11-14 14:00:46.870 ,1,1,0.,24.0,0.,24.0,0.,24.0,0.,24.0
1980-11-14 14:01:10.870 ,1,0,0.,24.0,0.,24.0,1.,24.0,0.,24.0
1980-11-14 14:01:34.870 ,0,1,0.,24.0,0.,24.0,0.,24.0,0.,24.0
1980-11-14 14:01:58.870 ,0,0,0.,24.0,0.,24.0,1.,24.0,0.,24.0
1980-11-14 14:02:22.870 ,0,1,0.,24.0,0.,24.0,1.,24.0,0.,24.0
1980-11-14 14:02:46.870 ,0,0,0.,24.0,0.,24.0,1.,24.0,0.,24.0
1980-11-14 14:03:10.870 ,1,1,0.,24.0,0.,24.0,1.,24.0,0.,24.0
1980-11-14 14:03:34.870 ,1,0,0.,24.0,0.,24.0,0.,24.0,0.,24.0
1980-11-14 14:03:58.870 ,2,1,0.,24.0,0.,24.0,0.,24.0,0.,24.0
1980-11-14 14:04:22.870 ,2,0,0.,24.0,0.,24.0,0.,24.0,0.,24.0
1980-11-14 14:04:46.870 ,3,1,0.,24.0,0.,24.0,0.,24.0,0.,24.0
1980-11-14 14:05:10.870 ,3,0,0.,24.0,0.,24.0,0.,24.0,0.,24.0
1980-11-14 14:05:34.870 ,4,1,0.,24.0,0.,24.0,1.,24.0,0.,24.0
1980-11-14 14:05:58.870 ,4,0,0.,24.0,0.,24.0,1.,24.0,0.,24.0
1980-11-14 14:06:22.870 ,5,1,0.,24.0,0.,24.0,0.,24.0,0.,24.0
1980-11-14 14:06:46.870 ,5,0,0.,24.0,0.,24.0,1.,24.0,0.,24.0
1980-11-14 14:07:10.870 ,6,1,0.,24.0,0.,24.0,1.,24.0,0.,24.0
1980-11-14 14:07:34.870 ,6,0,0.,24.0,0.,24.0,0.,24.0,0.,24.0
1980-11-14 14:07:58.870 ,7,1,2.,24.0,0.,24.0,0.,24.0,0.,24.0
1980-11-14 14:08:22.870 ,7,0,7.,24.0,0.,24.0,0.,24.0,0.,24.0
1980-11-14 14:08:46.870 ,7,1,7.,24.0,0.,24.0,0.,24.0,0.,24.0
1980-11-14 14:09:10.870 ,7,0,10.,24.0,0.,24.0,0.,24.0,0.,24.0
1980-11-14 14:09:34.870 ,6,1,4.,24.0,0.,24.0,0.,24.0,0.,24.0
1980-11-14 14:09:58.870 ,6,0,0.,24.0,0.,24.0,1.,24.0,0.,24.0
1980-11-14 14:10:22.870 ,5,1,0.,24.0,0.,24.0,0.,24.0,0.,24.0
1980-11-14 14:10:46.870 ,5,0,0.,24.0,0.,24.0,0.,24.0,0.,24.0
1980-11-14 14:11:10.870 ,4,1,0.,24.0,0.,24.0,1.,24.0,0.,24.0
1980-11-14 14:11:34.870 ,4,0,0.,24.0,0.,24.0,1.,24.0,0.,24.0
1980-11-14 14:11:58.870 ,3,1,0.,24.0,0.,24.0,0.,24.0,0.,24.0
1980-11-14 14:12:22.870 ,3,0,0.,24.0,0.,24.0,0.,24.0,0.,24.0
1980-11-14 14:12:46.870 ,2,1,0.,24.0,0.,24.0,0.,24.0,0.,24.0
1980-11-14 14:13:10.870 ,2,0,0.,24.0,0.,24.0,0.,24.0,0.,24.0
1980-11-14 14:13:34.870 ,1,1,0.,24.0,0.,24.0,0.,24.0,0.,24.0
1980-11-14 14:13:58.870 ,1,0,0.,24.0,0.,24.0,0.,24.0,0.,24.0
1980-11-14 14:14:22.870 ,0,1,0.,24.0,0.,24.0,0.,24.0,0.,24.0
1980-11-14 14:14:46.870 ,0,0,0.,24.0,0.,24.0,2.,24.0,0.,24.0
1980-11-14 14:15:10.870 ,0,1,0.,24.0,0.,24.0,0.,24.0,0.,24.0
1980-11-14 14:15:34.870 ,0,0,0.,24.0,0.,24.0,0.,24.0,0.,24.0
1980-11-14 14:15:58.870 ,1,1,0.,24.0,0.,24.0,1.,24.0,0.,24.0
1980-11-14 14:16:22.870 ,1,0,0.,24.0,0.,24.0,1.,24.0,0.,24.0
1980-11-14 14:16:46.870 ,2,1,0.,24.0,0.,24.0,1.,24.0,0.,24.0
1980-11-14 14:17:10.870 ,2,0,0.,24.0,0.,24.0,0.,24.0,0.,24.0
1980-11-14 14:17:34.870 ,3,1,0.,24.0,0.,24.0,0.,24.0,0.,24.0
1980-11-14 14:17:58.870 ,3,0,0.,24.0,0.,24.0,0.,24.0,0.,24.0
1980-11-14 14:18:22.870 ,4,1,0.,24.0,0.,24.0,1.,24.0,0.,24.0
1980-11-14 14:18:46.870 ,4,0,0.,24.0,0.,24.0,0.,24.0,0.,24.0
1980-11-14 14:19:10.870 ,5,1,0.,24.0,0.,24.0,2.,24.0,0.,24.0
1980-11-14 14:19:34.870 ,5,0,0.,24.0,0.,24.0,0.,24.0,0.,24.0
1980-11-14 14:19:58.870 ,6,1,0.,24.0,0.,24.0,0.,24.0,0.,24.0
1980-11-14 14:20:22.870 ,6,0,0.,24.0,0.,24.0,0.,24.0,0.,24.0
1980-11-14 14:20:46.870 ,7,1,0.,24.0,0.,24.0,1.,24.0,0.,24.0
1980-11-14 14:21:10.870 ,7,0,10.,24.0,0.,24.0,0.,24.0,0.,24.0
1980-11-14 14:21:34.870 ,7,1,8.,24.0,0.,24.0,0.,24.0,0.,24.0
1980-11-14 14:21:58.870 ,7,0,11.,24.0,0.,24.0,2.,24.0,0.,24.0
1980-11-14 14:22:22.870 ,6,1,9.,24.0,0.,24.0,1.,24.0,0.,24.0
1980-11-14 14:22:46.870 ,6,0,0.,24.0,0.,24.0,1.,24.0,0.,24.0
1980-11-14 14:23:10.870 ,5,1,0.,24.0,0.,24.0,0.,24.0,0.,24.0
1980-11-14 14:23:34.870 ,5,0,0.,24.0,0.,24.0,1.,24.0,0.,24.0
1980-11-14 14:23:58.870 ,4,1,0.,24.0,0.,24.0,0.,24.0,0.,24.0
1980-11-14 14:24:22.870 ,4,0,0.,24.0,0.,24.0,0.,24.0,0.,24.0
1980-11-14 14:24:46.870 ,3,1,0.,24.0,0.,24.0,1.,24.0,0.,24.0
1980-11-14 14:25:10.870 ,3,0,0.,24.0,0.,24.0,0.,24.0,0.,24.0
1980-11-14 14:25:34.870 ,2,1,0.,24.0,0.,24.0,0.,24.0,0.,24.0
1980-11-14 14:25:58.870 ,2,0,0.,24.0,0.,24.0,0.,24.0,0.,24.0
1980-11-14 14:26:22.870 ,1,1,0.,24.0,0.,24.0,1.,24.0,0.,24.0
1980-11-14 14:26:46.870 ,1,0,0.,24.0,0.,24.0,1.,24.0,0.,24.0
1980-11-14 14:27:10.870 ,0,1,0.,24.0,0.,24.0,1.,24.0,0.,24.0
1980-11-14 14:27:34.870 ,0,0,0.,24.0,0.,24.0,0.,24.0,0.,24.0
1980-11-14 14:27:58.870 ,0,1,0.,24.0,0.,24.0,1.,24.0,0.,24.0
1980-11-14 14:28:22.870 ,0,0,0.,24.0,0.,24.0,0.,24.0,0.,24.0
1980-11-14 14:28:46.870 ,1,1,0.,24.0,0.,24.0,0.,24.0,0.,24.0
1980-11-14 14:29:10.870 ,1,0,0.,24.0,0.,24.0,1.,24.0,0.,24.0
1980-11-14 14:29:34.870 ,2,1,0.,24.0,0.,24.0,1.,24.0,0.,24.0
1980-11-14 14:29:58.870 ,2,0,0.,24.0,0.,24.0,1.,24.0,0.,24.0
1980-11-14 14:30:22.870 ,3,1,0.,24.0,0.,24.0,0.,24.0,0.,24.0
1980-11-14 14:30:46.870 ,3,0,0.,24.0,0.,24.0,0.,24.0,0.,24.0
1980-11-14 14:31:10.870 ,4,1,0.,24.0,0.,24.0,0.,24.0,0.,24.0
1980-11-14 14:31:34.870 ,4,0,0.,24.0,0.,24.0,0.,24.0,0.,24.0
1980-11-14 14:31:58.870 ,5,1,0.,24.0,0.,24.0,1.,24.0,0.,24.0
1980-11-14 14:32:22.870 ,5,0,0.,24.0,0.,24.0,2.,24.0,0.,24.0
1980-11-14 14:32:46.870 ,6,1,0.,24.0,0.,24.0,0.,24.0,0.,24.0
1980-11-14 14:33:10.870 ,6,0,0.,24.0,0.,24.0,1.,24.0,0.,24.0
1980-11-14 14:33:34.870 ,7,1,7.,24.0,0.,24.0,1.,24.0,0.,24.0
1980-11-14 14:33:58.870 ,7,0,9.,24.0,0.,24.0,0.,24.0,0.,24.0
1980-11-14 14:34:22.870 ,7,1,6.,24.0,0.,24.0,0.,24.0,0.,24.0
1980-11-14 14:34:46.870 ,7,0,9.,24.0,0.,24.0,1.,24.0,0.,24.0
1980-11-14 14:35:10.870 ,6,1,4.,24.0,0.,24.0,1.,24.0,0.,24.0
1980-11-14 14:35:34.870 ,6,0,0.,24.0,0.,24.0,0.,24.0,0.,24.0
1980-11-14 14:35:58.870 ,5,1,0.,24.0,0.,24.0,0.,24.0,0.,24.0
1980-11-14 14:36:22.870 ,5,0,0.,24.0,0.,24.0,1.,24.0,0.,24.0
1980-11-14 14:36:46.870 ,4,1,0.,24.0,0.,24.0,1.,24.0,0.,24.0
1980-11-14 14:37:10.870 ,4,0,0.,24.0,0.,24.0,2.,24.0,0.,24.0
1980-11-14 14:37:34.870 ,3,1,0.,24.0,0.,24.0,1.,24.0,0.,24.0
1980-11-14 14:37:58.870 ,3,0,0.,24.0,0.,24.0,0.,24.0,0.,24.0
1980-11-14 14:38:22.870 ,2,1,0.,24.0,0.,24.0,0.,24.0,0.,24.0
1980-11-14 14:38:46.870 ,2,0,0.,24.0,0.,24.0,1.,24.0,0.,24.0
1980-11-14 14:39:10.870 ,1,1,0.,24.0,0.,24.0,1.,24.0,0.,24.0
1980-11-14 14:39:34.870 ,1,0,0.,24.0,0.,24.0,1.,24.0,0.,24.0
1980-11-14 14:39:58.870 ,0,1,0.,24.0,0.,24.0,1.,24.0,0.,24.0
1980-11-14 14:40:22.870 ,0,0,0.,24.0,0.,24.0,0.,24.0,0.,24.0
1980-11-14 14:40:46.870 ,0,1,0.,24.0,0.,24.0,2.,24.0,0.,24.0
1980-11-14 14:41:10.870 ,0,0,0.,24.0,0.,24.0,2.,24.0,0.,24.0
1980-11-14 14:41:34.870 ,1,1,0.,24.0,0.,24.0,1.,24.0,0.,24.0
1980-11-14 14:41:58.870 ,1,0,0.,24.0,0.,24.0,0.,24.0,0.,24.0
1980-11-14 14:42:22.870 ,2,1,0.,24.0,0.,24.0,0.,24.0,0.,24.0
1980-11-14 14:42:46.870 ,2,0,0.,24.0,0.,24.0,0.,24.0,0.,24.0
1980-11-14 14:43:10.870 ,3,1,0.,24.0,0.,24.0,1.,24.0,0.,24.0
1980-11-14 14:43:34.870 ,3,0,0.,24.0,0.,24.0,0.,24.0,0.,24.0
1980-11-14 14:43:58.870 ,4,1,0.,24.0,0.,24.0,0.,24.0,0.,24.0
1980-11-14 14:44:22.870 ,4,0,0.,24.0,0.,24.0,0.,24.0,0.,24.0
1980-11-14 14:44:46.870 ,5,1,0.,24.0,0.,24.0,0.,24.0,0.,24.0
1980-11-14 14:45:10.870 ,5,0,0.,24.0,0.,24.0,0.,24.0,0.,24.0
1980-11-14 14:45:34.870 ,6,1,0.,24.0,0.,24.0,0.,24.0,0.,24.0
1980-11-14 14:45:58.870 ,6,0,0.,24.0,0.,24.0,0.,24.0,0.,24.0
1980-11-14 14:46:22.870 ,7,1,3.,24.0,0.,24.0,0.,24.0,0.,24.0
1980-11-14 14:46:46.870 ,7,0,10.,24.0,0.,24.0,0.,24.0,0.,24.0
1980-11-14 14:47:10.870 ,7,1,12.,24.0,0.,24.0,0.,24.0,0.,24.0
1980-11-14 14:47:34.870 ,7,0,8.,24.0,0.,24.0,0.,24.0,0.,24.0
1980-11-14 14:47:58.870 ,6,1,3.,24.0,0.,24.0,1.,24.0,0.,24.0
1980-11-14 14:48:22.870 ,6,0,0.,24.0,0.,24.0,0.,24.0,0.,24.0
1980-11-14 14:48:46.870 ,5,1,0.,24.0,0.,24.0,0.,24.0,0.,24.0
1980-11-14 14:49:10.870 ,5,0,0.,24.0,0.,24.0,1.,24.0,0.,24.0
1980-11-14 14:49:34.870 ,4,1,0.,24.0,0.,24.0,1.,24.0,0.,24.0
1980-11-14 14:49:58.870 ,4,0,0.,24.0,0.,24.0,1.,24.0,0.,24.0
1980-11-14 14:50:22.870 ,3,1,0.,24.0,0.,24.0,1.,24.0,0.,24.0
1980-11-14 14:50:46.870 ,3,0,0.,24.0,0.,24.0,0.,24.0,0.,24.0
1980-11-14 14:51:10.870 ,2,1,0.,24.0,0.,24.0,0.,24.0,0.,24.0
1980-11-14 14:51:34.870 ,2,0,0.,24.0,0.,24.0,0.,24.0,0.,24.0
1980-11-14 14:51:58.870 ,1,1,0.,24.0,0.,24.0,0.,24.0,0.,24.0
1980-11-14 14:52:22.870 ,1,0,0.,24.0,0.,24.0,0.,24.0,0.,24.0
1980-11-14 14:52:46.870 ,0,1,0.,24.0,0.,24.0,0.,24.0,0.,24.0
1980-11-14 14:53:10.870 ,0,0,0.,24.0,0.,24.0,0.,24.0,0.,24.0
1980-11-14 14:53:34.870 ,0,1,0.,24.0,0.,24.0,1.,24.0,0.,24.0
1980-11-14 14:53:58.870 ,0,0,0.,24.0,0.,24.0,0.,24.0,0.,24.0
1980-11-14 14:54:22.870 ,1,1,0.,24.0,0.,24.0,1.,24.0,0.,24.0
1980-11-14 14:54:46.870 ,1,0,0.,24.0,0.,24.0,1.,24.0,0.,24.0
1980-11-14 14:55:10.870 ,2,1,0.,24.0,0.,24.0,0.,24.0,0.,24.0
1980-11-14 14:55:34.870 ,2,0,0.,24.0,0.,24.0,0.,24.0,0.,24.0
1980-11-14 14:55:58.870 ,3,1,0.,24.0,0.,24.0,0.,24.0,0.,24.0
1980-11-14 14:56:22.870 ,3,0,0.,24.0,0.,24.0,1.,24.0,0.,24.0
1980-11-14 14:56:46.870 ,4,1,0.,24.0,0.,24.0,0.,24.0,0.,24.0
1980-11-14 14:57:10.870 ,4,0,0.,24.0,0.,24.0,0.,24.0,0.,24.0
1980-11-14 14:57:34.870 ,5,1,0.,24.0,0.,24.0,0.,24.0,0.,24.0
1980-11-14 14:57:58.870 ,5,0,0.,24.0,0.,24.0,1.,24.0,0.,24.0
1980-11-14 14:58:22.870 ,6,1,0.,24.0,0.,24.0,0.,24.0,0.,24.0
1980-11-14 14:58:46.870 ,6,0,0.,24.0,0.,24.0,1.,24.0,0.,24.0
1980-11-14 14:59:10.870 ,7,1,3.,24.0,0.,24.0,0.,24.0,0.,24.0
1980-11-14 14:59:34.870 ,7,0,6.,24.0,0.,24.0,1.,24.0,0.,24.0
1980-11-14 14:59:58.870 ,7,1,5.,24.0,0.,24.0,0.,24.0,0.,24.0
